Weather History for Shannon, Ireland

Change the Weather History Date:

Sunday, October 6, 2013

  Actual Average Record
Temperature  
Mean Temperature 60 °F -  
Max Temperature 66 °F 57 °F 66 °F (2013)
Min Temperature 55 °F 45 °F 35 °F (2012)
Degree Days  
Heating Degree Days 4    
Growing Degree Days 10 (Base 50)    
Moisture  
Dew Point 60 °F    
Average Humidity 92    
Maximum Humidity 100    
Minimum Humidity 88    
Precipitation  
Precipitation 0.08 in 0.12 in - ()
Sea Level Pressure  
Sea Level Pressure 30.12 in    
Wind  
Wind Speed 9 mph ()    
Max Wind Speed 14 mph    
Max Gust Speed -    
Visibility 6.4 miles    
Events Rain    
Averages and records for this station are not official NWS values.
T = Trace of Precipitation, MM = Missing Value Source: Averaged Metar Reports

Daily Weather History Graph

Daily Weather History Graph

Search for Another Location

Airport:

Trip Planner

Search our weather history database for the weather conditions in past years. The results will help you decide how hot, cold, wet, or windy it might be!

Date:

Astronomy

Oct. 06, 2013 Rise Set
Actual Time 7:45 AM IST 7:00 PM IST
Civil Twilight 7:11 AM IST 7:35 PM IST
Nautical Twilight 6:31 AM IST 8:14 PM IST
Astronomical Twilight 5:51 AM IST 8:54 PM IST
Moon 9:31 AM IST (10/6) 7:31 PM IST (10/6)
Length of Visible Light 12h 23m
Length of Day
11h 15m
New Moon, 2% of the Moon is Illuminated
Oct 6
New Moon
Oct 12
First Quarter
Oct 19
Full
Oct 27
Last Quarter
Nov 3
New

Hourly Weather History & Observations

Time (IST) Temp. Dew Point Humidity Pressure Visibility Wind Dir Wind Speed Gust Speed Precip Events Conditions
12:00 AM 55.4 °F 53.6 °F 94% 30.15 in 6.2 mi ESE 9.2 mph - N/A   Mostly Cloudy
12:30 AM 57.2 °F 53.6 °F 88% 30.15 in 6.2 mi SE 8.1 mph - N/A   Mostly Cloudy
1:00 AM 57 °F 54 °F 88% 30.15 in 16 mi ESE 11.2 mph - -   Mostly Cloudy
1:00 AM 57.2 °F 53.6 °F 88% 30.12 in 6.2 mi ESE 10.4 mph - N/A   Mostly Cloudy
1:30 AM 57.2 °F 55.4 °F 94% 30.12 in 6.2 mi SE 10.4 mph - N/A   Mostly Cloudy
2:00 AM 59.0 °F 55.4 °F 88% 30.12 in 6.2 mi ESE 10.4 mph - N/A   Mostly Cloudy
2:30 AM 59.0 °F 55.4 °F 88% 30.12 in 6.2 mi SSE 11.5 mph - N/A   Mostly Cloudy
3:00 AM 60.8 °F 57.2 °F 88% 30.12 in 6.2 mi SE 11.5 mph - N/A   Mostly Cloudy
3:30 AM 60.8 °F 57.2 °F 88% 30.12 in 6.2 mi SE 11.5 mph - N/A   Mostly Cloudy
4:00 AM 59.0 °F 55.4 °F 88% 30.12 in 6.2 mi SE 12.7 mph - N/A   Scattered Clouds
4:30 AM 59.0 °F 57.2 °F 94% 30.12 in 6.2 mi SE 8.1 mph - N/A   Mostly Cloudy
5:00 AM 60.8 °F 57.2 °F 88% 30.09 in 6.2 mi SE 10.4 mph - N/A   Mostly Cloudy
5:30 AM 60.8 °F 57.2 °F 88% 30.12 in 6.2 mi SSE 9.2 mph - N/A   Mostly Cloudy
6:00 AM 59.0 °F 57.2 °F 94% 30.12 in 6.2 mi SSE 9.2 mph - N/A   Mostly Cloudy
6:30 AM 59.0 °F 57.2 °F 94% 30.12 in 6.2 mi SSE 8.1 mph - N/A   Mostly Cloudy
7:00 AM 60 °F 57 °F 88% 30.12 in 16 mi SE 6.7 mph - - Rain Light Rain
7:00 AM 60.8 °F 57.2 °F 88% 30.12 in 6.2 mi SE 5.8 mph - N/A   Mostly Cloudy
7:30 AM 60.8 °F 59.0 °F 94% 30.12 in 6.2 mi ESE 4.6 mph - N/A   Light Drizzle
8:00 AM 60.8 °F 59.0 °F 94% 30.12 in 6.2 mi Variable 1.2 mph - N/A   Mostly Cloudy
8:30 AM 62.6 °F 59.0 °F 88% 30.12 in 6.2 mi South 9.2 mph - N/A   Mostly Cloudy
9:00 AM 62.6 °F 59.0 °F 88% 30.12 in 6.2 mi SSE 12.7 mph - N/A   Mostly Cloudy
9:30 AM 62.6 °F 60.8 °F 94% 30.12 in 6.2 mi SSE 12.7 mph - N/A   Mostly Cloudy
10:00 AM 62.6 °F 60.8 °F 94% 30.12 in 2.5 mi SSE 10.4 mph - N/A   Light Drizzle
10:30 AM 62.6 °F 60.8 °F 94% 30.12 in 1.9 mi SSE 11.5 mph - N/A   Light Drizzle
11:00 AM 62.6 °F 62.6 °F 100% 30.12 in 3.7 mi SSE 13.8 mph - N/A   Light Drizzle
11:30 AM 64.4 °F 62.6 °F 94% 30.12 in 5.0 mi South 11.5 mph - N/A   Light Drizzle
12:00 PM 64.4 °F 62.6 °F 94% 30.12 in 1.6 mi South 11.5 mph - N/A   Light Drizzle
12:30 PM 64.4 °F 62.6 °F 94% 30.12 in 6.2 mi South 11.5 mph - N/A   Mostly Cloudy
1:00 PM 65 °F 64 °F 93% 30.15 in 12 mi South 8.9 mph - - Rain Light Drizzle
1:00 PM 64.4 °F 64.4 °F 100% 30.12 in 6.2 mi South 9.2 mph - N/A   Mostly Cloudy
1:30 PM 64.4 °F 62.6 °F 94% 30.12 in 6.2 mi SW 12.7 mph - N/A Rain Light Rain
2:00 PM 66.2 °F 62.6 °F 88% 30.12 in 6.2 mi SW 9.2 mph - N/A   Mostly Cloudy
2:30 PM 66.2 °F 62.6 °F 88% 30.12 in 3.1 mi SW 9.2 mph - N/A Rain Light Rain
3:00 PM 64.4 °F 62.6 °F 94% 30.12 in 2.2 mi SW 6.9 mph - N/A   Light Drizzle
3:30 PM 64.4 °F 64.4 °F 100% 30.12 in 1.9 mi South 8.1 mph - N/A Rain Rain
4:00 PM 64.4 °F 64.4 °F 100% 30.12 in 6.2 mi SSW 8.1 mph - N/A Rain Light Rain
4:30 PM 64.4 °F 62.6 °F 94% 30.12 in 6.2 mi SW 11.5 mph - N/A   Mostly Cloudy
5:00 PM 64.4 °F 62.6 °F 94% 30.12 in 6.2 mi SW 11.5 mph - N/A   Mostly Cloudy
5:30 PM 64.4 °F 62.6 °F 94% 30.12 in 6.2 mi SW 10.4 mph - N/A   Mostly Cloudy
6:00 PM 64.4 °F 62.6 °F 94% 30.12 in 6.2 mi SW 12.7 mph - N/A   Mostly Cloudy
6:30 PM 64.4 °F 62.6 °F 94% 30.12 in 6.2 mi SSW 8.1 mph - N/A   Mostly Cloudy
7:00 PM 64 °F 62 °F 90% 30.14 in 19 mi SSW 8.9 mph - -   Partly Cloudy
7:00 PM 64.4 °F 62.6 °F 94% 30.12 in 6.2 mi SSW 8.1 mph - N/A   Mostly Cloudy
7:30 PM 64.4 °F 60.8 °F 88% 30.12 in 6.2 mi SE 5.8 mph - N/A   Mostly Cloudy
8:00 PM 64.4 °F 62.6 °F 94% 30.15 in 6.2 mi SSW 9.2 mph - N/A   Light Drizzle
8:30 PM 64.4 °F 62.6 °F 94% 30.12 in 6.2 mi South 5.8 mph - N/A   Light Drizzle
9:00 PM 62.6 °F 62.6 °F 100% 30.15 in 6.2 mi SSE 5.8 mph - N/A   Overcast
9:30 PM 64.4 °F 62.6 °F 94% 30.15 in 6.2 mi South 10.4 mph - N/A   Overcast
10:00 PM 64.4 °F 60.8 °F 88% 30.15 in 6.2 mi South 5.8 mph - N/A   Mostly Cloudy
10:30 PM 62.6 °F 60.8 °F 94% 30.12 in 6.2 mi SSE 8.1 mph - N/A   Mostly Cloudy
11:00 PM 62.6 °F 60.8 °F 94% 30.12 in 6.2 mi SSE 6.9 mph - N/A   Mostly Cloudy
11:30 PM 62.6 °F 59.0 °F 88% 30.12 in - SSE 5.8 mph - N/A   Clear